CEB915 RPVB-RPVE

Flight info

Callsign CEB915
Flight time 0h 39m
Altitude 12000
Route GLA2A GALIA TR8 KLO KLO7A
Aircraft AT76/M-SDFGIRY/S

Departure

Time 2026-04-21 05:07
Airport Bacolod-Silay International Airport (RPVB)

Arrival

Time 2026-04-21 05:46
Airport Godofredo P. Ramos Airport (RPVE)
Time Latitude Longitude Altitude Speed Heading
2026-04-21 04:52 10.77348 123.01418 77 ft 0 kts 208°
2026-04-21 04:53 10.77349 123.01418 80 ft 0 kts 208°
2026-04-21 04:56 10.77349 123.01419 80 ft 0 kts 208°
2026-04-21 04:57 10.77350 123.01419 80 ft 0 kts 208°
2026-04-21 05:01 10.77351 123.01419 75 ft 0 kts 208°
2026-04-21 05:02 10.77346 123.01421 80 ft 1 kts 161°
2026-04-21 05:02 10.77315 123.01445 79 ft 3 kts 102°
2026-04-21 05:02 10.77317 123.01459 80 ft 2 kts 70°
2026-04-21 05:03 10.77371 123.01502 77 ft 6 kts 73°
2026-04-21 05:03 10.77347 123.01545 78 ft 8 kts 122°
2026-04-21 05:03 10.77315 123.01600 77 ft 10 kts 120°
2026-04-21 05:03 10.77273 123.01656 81 ft 11 kts 148°
2026-04-21 05:04 10.77188 123.01636 78 ft 16 kts 210°
2026-04-21 05:04 10.77082 123.01573 81 ft 19 kts 209°
2026-04-21 05:04 10.76964 123.01498 81 ft 20 kts 229°
2026-04-21 05:04 10.76903 123.01448 77 ft 3 kts 154°
2026-04-21 05:05 10.76896 123.01461 78 ft 1 kts 95°
2026-04-21 05:05 10.76909 123.01473 78 ft 0 kts 28°
2026-04-21 05:06 10.76934 123.01487 79 ft 26 kts 30°
2026-04-21 05:06 10.77317 123.01712 76 ft 99 kts 30°
2026-04-21 05:06 10.77990 123.02097 584 ft 107 kts 26°
2026-04-21 05:07 10.78712 123.02478 1089 ft 118 kts 30°
2026-04-21 05:07 10.79417 123.02954 1425 ft 128 kts 35°
2026-04-21 05:07 10.80211 123.03510 1670 ft 146 kts 34°
2026-04-21 05:07 10.81085 123.04099 2115 ft 156 kts 35°
2026-04-21 05:08 10.82005 123.04716 2657 ft 161 kts 34°
2026-04-21 05:08 10.82949 123.05341 3253 ft 163 kts 34°
2026-04-21 05:08 10.83913 123.05951 3775 ft 164 kts 34°
2026-04-21 05:08 10.84886 123.06555 4313 ft 165 kts 33°
2026-04-21 05:09 10.85981 123.06869 4770 ft 173 kts 351°
2026-04-21 05:09 10.86918 123.06201 5431 ft 166 kts 297°
2026-04-21 05:09 10.87225 123.05124 6019 ft 155 kts 283°
2026-04-21 05:09 10.87463 123.04058 6435 ft 155 kts 283°
2026-04-21 05:10 10.87683 123.02978 6822 ft 158 kts 281°
2026-04-21 05:10 10.87904 123.01863 7203 ft 163 kts 282°
2026-04-21 05:10 10.88123 123.00723 7604 ft 165 kts 281°
2026-04-21 05:10 10.88334 122.99572 7985 ft 166 kts 281°
2026-04-21 05:11 10.88548 122.98415 8389 ft 167 kts 281°
2026-04-21 05:11 10.88770 122.97255 8806 ft 167 kts 281°
2026-04-21 05:11 10.88989 122.96089 9222 ft 168 kts 281°
2026-04-21 05:11 10.89209 122.94919 9626 ft 169 kts 282°
2026-04-21 05:12 10.89431 122.93741 9962 ft 170 kts 282°
2026-04-21 05:12 10.89656 122.92558 10292 ft 170 kts 281°
2026-04-21 05:12 10.89885 122.91365 10617 ft 173 kts 281°
2026-04-21 05:12 10.90116 122.90153 10927 ft 175 kts 281°
2026-04-21 05:13 10.90270 122.89345 11151 ft 176 kts 281°
2026-04-21 05:13 10.90515 122.88128 11488 ft 174 kts 287°
2026-04-21 05:13 10.91654 122.87082 11794 ft 178 kts 349°
2026-04-21 05:13 10.92478 122.86894 11833 ft 190 kts 348°
2026-04-21 05:14 10.93810 122.86514 11871 ft 207 kts 343°
2026-04-21 05:14 10.95209 122.85983 11887 ft 222 kts 338°
2026-04-21 05:14 10.97087 122.85005 11889 ft 235 kts 331°
2026-04-21 05:14 10.98509 122.84132 11889 ft 242 kts 329°
2026-04-21 05:15 10.99485 122.83521 11887 ft 246 kts 329°
2026-04-21 05:15 11.00957 122.82605 11905 ft 250 kts 329°
2026-04-21 05:15 11.02957 122.81383 11895 ft 256 kts 330°
2026-04-21 05:15 11.03997 122.80760 11879 ft 258 kts 330°
2026-04-21 05:16 11.05544 122.79837 11891 ft 258 kts 330°
2026-04-21 05:16 11.07102 122.78913 11892 ft 260 kts 330°
2026-04-21 05:16 11.08667 122.77982 11889 ft 261 kts 330°
2026-04-21 05:16 11.10209 122.77060 11880 ft 260 kts 330°
2026-04-21 05:17 11.11774 122.76129 11886 ft 261 kts 330°
2026-04-21 05:17 11.13336 122.75196 11889 ft 260 kts 330°
2026-04-21 05:17 11.14898 122.74268 11890 ft 260 kts 330°
2026-04-21 05:17 11.16458 122.73341 11900 ft 260 kts 330°
2026-04-21 05:18 11.18021 122.72411 11891 ft 260 kts 330°
2026-04-21 05:18 11.19584 122.71478 11902 ft 261 kts 330°
2026-04-21 05:18 11.21151 122.70544 11896 ft 261 kts 330°
2026-04-21 05:18 11.22716 122.69607 11893 ft 261 kts 330°
2026-04-21 05:19 11.24278 122.68677 11901 ft 260 kts 330°
2026-04-21 05:19 11.25840 122.67746 11900 ft 260 kts 330°
2026-04-21 05:19 11.27403 122.66815 11898 ft 260 kts 330°
2026-04-21 05:19 11.28963 122.65884 11900 ft 260 kts 330°
2026-04-21 05:20 11.30519 122.64947 11897 ft 260 kts 329°
2026-04-21 05:20 11.32040 122.63948 11911 ft 260 kts 326°
2026-04-21 05:20 11.33521 122.62888 11908 ft 260 kts 325°
2026-04-21 05:20 11.34064 122.62494 11901 ft 260 kts 325°
2026-04-21 05:21 11.35348 122.61565 11899 ft 260 kts 325°
2026-04-21 05:21 11.36819 122.60501 11904 ft 259 kts 325°
2026-04-21 05:21 11.38295 122.59448 11903 ft 259 kts 326°
2026-04-21 05:21 11.39776 122.58405 11907 ft 259 kts 326°
2026-04-21 05:22 11.41257 122.57363 11908 ft 258 kts 326°
2026-04-21 05:22 11.42736 122.56325 11920 ft 259 kts 327°
2026-04-21 05:22 11.44222 122.55288 11913 ft 259 kts 326°
2026-04-21 05:22 11.45708 122.54243 11914 ft 259 kts 326°
2026-04-21 05:23 11.47190 122.53196 11912 ft 259 kts 326°
2026-04-21 05:23 11.48677 122.52150 11914 ft 260 kts 327°
2026-04-21 05:23 11.50166 122.51107 11918 ft 260 kts 326°
2026-04-21 05:23 11.51651 122.50059 11915 ft 260 kts 327°
2026-04-21 05:24 11.53142 122.49010 11915 ft 260 kts 326°
2026-04-21 05:24 11.54633 122.47961 11917 ft 261 kts 326°
2026-04-21 05:24 11.56120 122.46921 11912 ft 259 kts 327°
2026-04-21 05:24 11.57605 122.45884 11912 ft 259 kts 327°
2026-04-21 05:25 11.59095 122.44847 11920 ft 259 kts 327°
2026-04-21 05:25 11.60585 122.43808 11913 ft 260 kts 327°
2026-04-21 05:25 11.62072 122.42766 11912 ft 259 kts 327°
2026-04-21 05:25 11.63559 122.41726 11914 ft 259 kts 327°
2026-04-21 05:26 11.65043 122.40687 11911 ft 259 kts 327°
2026-04-21 05:26 11.66527 122.39651 11914 ft 258 kts 327°
2026-04-21 05:26 11.68010 122.38613 11918 ft 258 kts 327°
2026-04-21 05:26 11.69328 122.37394 11913 ft 256 kts 309°
2026-04-21 05:27 11.70398 122.35941 11916 ft 256 kts 306°
2026-04-21 05:27 11.71442 122.34462 11917 ft 257 kts 307°
2026-04-21 05:27 11.72515 122.33000 11916 ft 258 kts 308°
2026-04-21 05:27 11.73629 122.31565 11913 ft 258 kts 310°
2026-04-21 05:28 11.74759 122.30139 11921 ft 258 kts 310°
2026-04-21 05:28 11.75890 122.28709 11917 ft 259 kts 310°
2026-04-21 05:28 11.77023 122.27275 11917 ft 260 kts 310°
2026-04-21 05:28 11.78142 122.25860 11913 ft 260 kts 310°
2026-04-21 05:29 11.79279 122.24425 11911 ft 260 kts 310°
2026-04-21 05:29 11.80413 122.22991 11910 ft 260 kts 310°
2026-04-21 05:29 11.81543 122.21555 11909 ft 259 kts 310°
2026-04-21 05:29 11.82669 122.20116 11908 ft 259 kts 309°
2026-04-21 05:30 11.83793 122.18680 11907 ft 259 kts 309°
2026-04-21 05:30 11.84919 122.17246 11906 ft 259 kts 309°
2026-04-21 05:30 11.86044 122.15812 11907 ft 259 kts 309°
2026-04-21 05:30 11.87170 122.14377 11902 ft 259 kts 310°
2026-04-21 05:31 11.88297 122.12941 11899 ft 259 kts 310°
2026-04-21 05:31 11.89423 122.11506 11895 ft 259 kts 310°
2026-04-21 05:31 11.90549 122.10068 11890 ft 259 kts 309°
2026-04-21 05:31 11.91676 122.08629 11888 ft 260 kts 310°
2026-04-21 05:32 11.92805 122.07190 11887 ft 259 kts 310°
2026-04-21 05:32 11.93932 122.05752 11885 ft 259 kts 310°
2026-04-21 05:32 11.95060 122.04315 11888 ft 259 kts 310°
2026-04-21 05:32 11.96187 122.02877 11884 ft 259 kts 310°
2026-04-21 05:33 11.97312 122.01439 11882 ft 259 kts 310°
2026-04-21 05:33 11.98437 122.00001 11821 ft 261 kts 310°
2026-04-21 05:33 11.99605 121.98517 11475 ft 274 kts 310°
2026-04-21 05:33 12.00821 121.96973 11126 ft 283 kts 310°
2026-04-21 05:34 12.02071 121.95389 10759 ft 289 kts 310°
2026-04-21 05:34 12.03293 121.93746 10373 ft 292 kts 301°
2026-04-21 05:34 12.03835 121.91744 9990 ft 298 kts 271°
2026-04-21 05:34 12.03405 121.89722 9602 ft 289 kts 243°
2026-04-21 05:35 12.02203 121.88155 9215 ft 274 kts 224°
2026-04-21 05:35 12.00887 121.86777 8838 ft 269 kts 225°
2026-04-21 05:35 11.99660 121.85360 8481 ft 265 kts 229°
2026-04-21 05:35 11.98556 121.83859 8131 ft 263 kts 233°
2026-04-21 05:36 11.97528 121.82318 7787 ft 262 kts 234°
2026-04-21 05:36 11.96517 121.80784 7448 ft 260 kts 234°
2026-04-21 05:36 11.95508 121.79259 7117 ft 258 kts 234°
2026-04-21 05:36 11.94485 121.77757 6786 ft 257 kts 233°
2026-04-21 05:37 11.93460 121.76264 6458 ft 256 kts 233°
2026-04-21 05:37 11.92417 121.74796 6102 ft 253 kts 227°
2026-04-21 05:37 11.90971 121.73861 5732 ft 247 kts 192°
2026-04-21 05:37 11.89370 121.73879 5406 ft 211 kts 161°
2026-04-21 05:38 11.88091 121.74361 5123 ft 183 kts 151°
2026-04-21 05:38 11.87013 121.74907 4877 ft 166 kts 147°
2026-04-21 05:38 11.86015 121.75456 4666 ft 159 kts 146°
2026-04-21 05:38 11.85089 121.75961 4464 ft 143 kts 147°
2026-04-21 05:39 11.84256 121.76412 4272 ft 129 kts 146°
2026-04-21 05:39 11.83638 121.76929 4064 ft 111 kts 107°
2026-04-21 05:39 11.83730 121.77657 3892 ft 103 kts 75°
2026-04-21 05:39 11.83964 121.78343 3726 ft 102 kts 71°
2026-04-21 05:40 11.84241 121.79009 3559 ft 102 kts 69°
2026-04-21 05:40 11.84549 121.79660 3391 ft 102 kts 67°
2026-04-21 05:40 11.84867 121.80310 3233 ft 103 kts 66°
2026-04-21 05:40 11.85185 121.80953 3066 ft 101 kts 66°
2026-04-21 05:41 11.85503 121.81583 2918 ft 99 kts 66°
2026-04-21 05:41 11.85822 121.82196 2755 ft 97 kts 66°
2026-04-21 05:41 11.86133 121.82802 2598 ft 95 kts 66°
2026-04-21 05:41 11.86435 121.83403 2446 ft 97 kts 65°
2026-04-21 05:42 11.86756 121.84037 2389 ft 103 kts 65°
2026-04-21 05:42 11.87088 121.84707 2288 ft 109 kts 65°
2026-04-21 05:42 11.87431 121.85397 2142 ft 107 kts 65°
2026-04-21 05:42 11.87759 121.86065 1984 ft 104 kts 65°
2026-04-21 05:43 11.88077 121.86716 1844 ft 102 kts 64°
2026-04-21 05:43 11.88391 121.87357 1724 ft 102 kts 63°
2026-04-21 05:43 11.88722 121.88014 1581 ft 104 kts 64°
2026-04-21 05:43 11.89072 121.88651 1456 ft 105 kts 63°
2026-04-21 05:44 11.89419 121.89310 1294 ft 104 kts 65°
2026-04-21 05:44 11.89736 121.89967 1147 ft 103 kts 63°
2026-04-21 05:44 11.90060 121.90621 1011 ft 104 kts 62°
2026-04-21 05:44 11.90396 121.91273 874 ft 103 kts 64°
2026-04-21 05:45 11.90727 121.91912 731 ft 100 kts 64°
2026-04-21 05:45 11.91032 121.92525 577 ft 97 kts 65°
2026-04-21 05:45 11.91348 121.93160 473 ft 103 kts 64°
2026-04-21 05:45 11.91672 121.93803 347 ft 103 kts 63°
2026-04-21 05:46 11.91991 121.94450 212 ft 101 kts 67°
2026-04-21 05:46 11.92303 121.95093 58 ft 102 kts 64°
2026-04-21 05:46 11.92597 121.95694 26 ft 79 kts 63°
2026-04-21 05:46 11.92724 121.95934 23 ft 26 kts 61°
2026-04-21 05:47 11.92793 121.96068 24 ft 17 kts 62°
2026-04-21 05:47 11.92801 121.96114 23 ft 4 kts 118°